Temperature
18 18 18 18 18 18 18 18 18 18 18 18 18 18 18 18 18 18 18 18 18 18 18 18 18 18 18 18 18 18 18 18 18 18 18 18 18 18 18 18 18 18 18
18 18 18 18 18 18 18 18 18 18 18 18 18 18 18 18 18 18 18 18 18 18 18 18 18 18 18 18 18 18 18 18 18 18 18 18 18 18 18 18 18 17 17
18 18 18 18 18 18 18 18 18 18 18 18 18 18 18 18 18 17 17 18 18 18 18 18 18 18 18 18 18 17 18 18 18 18 18 18 18 18 18 18 18 17 17
18 18 18 18 18 18 18 18 18 18 18 18 18 18 17 17 17 17 17 17 17 17 17 17 17 17 17 17 17 17 17 17 17 17 18 17 17 17 17 17 17 17 17
18 18 18 18 18 18 18 18 18 18 18 18 18 17 17 17 17 17 17 17 17 17 17 17 17 17 17 17 17 17 17 17 17 17 17 17 17 17 17 17 17 17 17
17 18 17 17 17 18 18 18 18 18 17 17 17 17 17 17 17 17 17 17 17 17 17 17 17 17 17 17 17 17 17 17 17 17 17 17 17 17 17 17 17 17 17
17 17 17 17 17 17 18 18 17 17 17 17 17 17 17 17 17 17 17 17 17 17 17 17 17 17 17 17 17 17 17 17 17 17 17 17 17 17 17 17 17 17 17
17 17 17 17 17 17 17 17 17 17 17 17 17 17 17 17 17 17 17 17 17 17 17 17 17 17 17 16 16 16 16 16 16 17 17 16 16 16 17 17 17 17 17
17 17 17 17 17 17 17 17 17 17 17 17 17 17 17 17 17 16 16 16 16 16 16 16 16 16 16 16 16 16 16 16 16 16 16 16 16 16 16 16 16 17 17
17 17 17 17 17 17 17 17 17 17 17 17 17 17 16 16 16 16 16 16 16 16 16 16 16 16 16 16 16 16 16 16 16 16 16 16 16 16 16 16 16 16 16
17 17 17 17 17 17 17 17 17 17 17 17 16 16 16 16 16 16 16 16 16 16 16 16 16 16 16 16 16 16 16 16 16 16 16 16 16 16 16 16 16 16 16
17 17 17 17 17 17 17 17 17 16 17 16 16 16 16 16 16 16 16 16 16 16 16 16 16 16 16 16 16 16 16 16 16 16 16 16 16 16 16 16 16 16 16
17 17 17 17 17 17 17 17 16 16 16 16 16 16 16 16 16 16 16 16 16 16 16 16 16 16 16 16 16 16 16 16 16 16 15 16 16 16 15 15 15 15 15
17 17 17 17 17 17 17 16 16 16 16 16 16 16 16 16 16 16 16 16 16 16 16 16 16 16 16 16 15 15 15 15 15 15 15 15 15 15 15 15 15 15 15
17 17 17 17 17 17 17 16 16 16 16 16 16 16 16 16 16 16 16 16 16 16 16 16 16 16 16 16 15 15 15 15 15 15 15 15 15 15 15 15 15 15 15
17 17 17 17 17 17 17 17 16 16 16 16 16 16 16 16 16 16 16 16 16 16 16 16 16 15 15 15 15 15 15 15 15 15 15 15 15 15 15 15 15 15 15
17 17 17 17 17 17 17 17 16 16 16 16 16 16 16 16 16 16 16 16 16 16 16 15 15 15 15 15 15 15 15 15 15 15 15 15 15 15 15 14 14 14 14
17 17 17 17 17 17 17 17 17 16 16 16 16 16 16 16 16 16 16 16 16 16 15 15 15 15 15 15 15 15 15 14 14 14 14 14 14 14 14 14 14 14 14
17 17 17 17 17 17 17 17 16 16 16 16 16 16 16 16 16 16 16 16 16 15 15 15 15 15 15 15 15 15 14 14 14 14 14 14 14 14 14 14 14 14 14
17 17 17 17 17 17 17 16 16 16 16 16 16 16 16 16 16 16 16 16 16 15 15 15 15 15 15 15 15 14 14 14 14 14 14 14 14 14 14 14 14 14 14
17 17 17 17 17 17 17 16 16 16 16 16 16 16 16 16 16 16 16 16 16 15 15 15 15 15 15 15 15 14 14 14 14 14 14 14 14 14 14 14 14 13 14
17 17 17 17 17 17 17 17 16 16 16 16 16 16 16 16 16 16 16 16 16 15 15 15 15 15 15 15 14 14 14 14 14 14 14 14 14 14 13 13 13 13 13
17 17 17 17 17 17 16 16 16 16 16 16 16 16 16 16 16 16 16 16 15 15 15 15 15 15 15 15 14 14 14 14 13 13 13 13 13 13 13 13 13 13 13
18 17 17 17 17 16 16 16 16 16 16 16 16 16 16 16 16 15 15 15 15 15 15 15 15 15 15 15 15 14 14 14 14 13 13 13 13 13 13 13 13 13 13
18 17 17 17 17 16 16 16 16 16 16 16 16 16 16 15 15 15 15 15 15 15 15 15 15 15 15 15 15 15 14 14 14 14 13 13 13 13 13 13 13 13 13
17 17 17 17 17 16 16 16 16 16 16 16 16 16 16 15 15 15 15 15 15 15 15 15 15 15 15 15 15 15 14 14 14 14 13 13 13 13 13 13 13 12 12
Wind_Speed
0 2 1 6 8 9 9 10 10 11 11 12 12 13 13 13 12 12 12 11 11 11 11 11 11 11 11 11 11 11 11 11 11 11 10 9 9 9 9 9 9 8 9
2 2 4 6 8 9 9 9 10 11 11 12 12 12 12 12 12 11 11 11 11 11 11 11 11 11 11 11 10 10 10 11 11 11 10 9 9 9 9 9 9 7 9
3 4 6 7 8 9 9 9 10 10 11 12 12 12 12 12 11 11 10 10 10 11 11 11 11 11 10 10 10 10 10 11 11 11 11 9 8 9 9 9 9 9 9
4 5 6 8 8 8 8 9 10 10 11 11 11 11 11 11 11 10 10 10 10 10 10 10 11 11 10 10 11 11 11 11 11 11 10 9 8 9 9 9 9 9 9
4 6 7 8 8 8 8 9 10 10 11 11 11 11 10 10 10 9 9 9 9 10 10 10 10 10 10 11 11 11 12 12 12 11 10 9 8 9 9 8 8 8 8
4 5 7 8 8 9 9 9 10 10 11 11 11 10 10 10 9 9 8 9 9 9 9 10 10 11 11 11 11 11 12 11 11 10 9 8 7 8 8 8 8 8 7
4 5 6 8 8 8 8 9 9 10 9 9 10 10 9 9 9 9 9 9 9 9 9 10 10 10 11 11 11 11 11 11 10 9 8 7 7 9 9 8 8 8 8
4 4 5 7 7 7 8 8 8 9 9 9 9 9 9 9 8 8 8 9 9 9 9 10 9 10 11 11 11 11 11 10 9 8 8 7 7 8 9 9 8 8 8
4 5 4 5 5 5 6 6 7 8 8 8 9 9 8 8 8 8 9 9 9 9 10 10 10 10 10 11 12 11 11 11 9 7 7 7 7 8 9 8 9 9 9
4 4 4 4 4 4 4 5 6 6 7 7 7 7 7 7 7 8 8 8 9 9 9 9 10 10 11 11 11 11 11 10 9 8 7 7 8 8 9 9 9 9 9
3 2 2 3 3 3 3 4 4 5 5 5 5 6 6 6 6 6 7 7 8 9 9 10 10 11 11 11 12 12 11 9 9 8 7 8 9 9 9 9 9 9 9
2 1 1 2 2 2 2 4 4 4 5 5 4 5 5 5 5 6 7 8 9 10 10 11 11 11 10 9 10 10 9 10 9 8 8 9 9 9 9 9 9 9 9
2 1 1 1 1 1 1 2 3 3 4 3 3 4 4 5 5 6 6 7 8 9 8 9 10 9 9 8 8 8 8 8 8 8 9 10 10 10 10 10 10 9 9
3 2 1 2 2 1 1 1 2 2 2 1 1 2 3 3 3 4 4 5 6 6 6 7 7 8 8 8 8 7 8 8 8 8 10 12 11 11 10 10 10 10 10
3 2 2 2 2 2 1 1 2 2 1 1 1 2 3 2 2 2 3 4 5 6 6 5 6 6 6 7 7 7 7 8 8 8 9 13 13 12 11 11 10 10 10
3 3 2 2 2 2 2 1 1 2 2 1 1 2 3 3 3 3 2 3 4 5 6 6 6 5 5 6 6 6 6 7 8 8 9 11 13 13 12 11 11 10 10
4 3 3 3 2 2 2 2 2 2 3 2 2 2 3 4 5 4 3 2 3 6 7 7 6 6 5 5 5 5 6 6 7 8 8 9 10 12 13 12 12 11 10
4 4 3 3 3 2 2 2 2 2 3 2 2 3 3 4 5 5 3 2 4 6 6 4 4 4 4 4 4 4 4 5 6 7 8 9 9 9 10 12 12 12 11
6 5 4 3 3 3 3 3 3 3 3 3 3 3 3 4 6 5 3 3 5 5 4 4 3 3 4 4 4 4 4 4 5 7 7 8 9 9 9 10 12 13 13
5 5 4 3 3 3 3 3 3 3 2 2 2 2 3 4 6 6 4 4 5 4 3 4 4 3 3 3 5 5 4 4 4 5 5 6 7 8 8 9 10 10 13
5 5 5 4 3 3 2 2 2 1 1 1 1 2 3 4 5 5 4 4 4 4 4 4 4 4 3 2 3 3 4 4 4 4 4 5 6 7 8 8 8 9 9
6 6 5 5 4 4 3 2 2 2 1 1 1 2 3 4 5 5 5 4 3 4 4 4 4 3 2 1 2 2 2 4 4 5 4 4 4 6 6 7 8 8 8
6 7 7 6 5 4 4 3 3 3 2 2 1 1 1 3 4 5 5 4 3 4 4 3 4 4 3 1 1 3 3 1 1 3 4 4 4 4 4 6 7 8 8
7 6 6 6 5 4 5 5 5 4 2 2 1 1 1 2 4 5 5 5 4 3 3 3 3 3 4 2 1 2 2 3 2 1 3 4 4 4 4 5 6 7 8
6 6 6 6 5 4 5 6 5 3 2 2 1 2 1 1 2 4 4 4 3 3 3 3 3 3 3 3 2 2 2 2 2 2 0 3 4 4 4 4 5 6 7
5 6 6 6 5 4 5 5 6 6 4 4 2 2 1 1 1 2 4 4 3 3 3 3 3 3 3 3 2 2 2 2 2 2 2 0 1 3 3 4 4 5 6
Wind_Direction
257 282 125 110 111 112 109 108 108 107 105 105 105 107 108 105 101 97 93 90 86 83 80 80 81 80 77 77 77 75 74 74 73 72 71 73 77 78 81 86 85 85 89
167 171 132 115 116 116 113 111 112 110 108 105 105 108 107 104 100 98 94 90 87 84 80 78 78 77 74 73 73 74 74 73 70 67 64 63 71 77 79 84 86 85 85
122 128 126 122 118 116 113 110 111 111 108 107 107 107 106 105 101 98 94 91 87 84 80 78 77 76 73 72 72 75 76 72 69 66 59 52 63 77 80 81 82 83 81
119 118 119 119 117 116 114 113 113 111 108 108 107 107 107 105 102 98 94 91 88 84 80 77 76 73 72 74 75 76 75 71 69 64 53 48 55 75 76 78 79 78 78
103 112 122 125 121 117 116 114 113 112 111 111 109 107 104 102 99 97 93 90 87 84 80 77 75 72 73 77 76 75 73 71 68 61 54 50 53 71 73 71 73 74 75
101 109 126 129 125 121 119 116 112 112 111 110 108 105 100 98 94 90 91 90 87 84 81 77 74 73 74 77 79 76 74 71 66 60 54 50 53 68 70 66 68 71 73
104 103 120 126 127 124 122 118 117 114 112 110 108 103 99 96 90 86 85 87 85 83 81 77 75 74 76 77 77 76 74 71 67 58 50 47 57 67 67 64 65 66 69
105 98 107 124 130 125 123 123 120 118 115 111 106 100 92 88 85 84 85 84 82 81 81 78 75 77 78 76 73 73 73 71 65 55 47 47 59 66 67 64 64 65 65
92 86 75 77 94 109 115 119 119 119 114 109 105 100 91 84 80 79 81 82 80 79 77 76 75 77 76 76 75 72 71 68 62 49 48 49 58 65 66 65 64 66 66
85 79 68 66 67 74 91 109 112 114 108 104 103 96 86 76 69 67 68 77 80 79 76 74 74 75 76 74 71 70 68 62 57 47 41 47 56 62 65 65 66 65 64
100 79 75 71 66 65 71 87 86 89 81 78 80 79 74 64 57 55 58 71 73 74 71 70 72 76 75 70 66 65 61 57 54 44 40 50 56 59 61 63 62 58 61
160 125 88 84 77 65 65 69 64 61 62 60 66 68 63 56 52 53 56 65 67 66 65 65 68 71 70 65 62 62 58 53 49 41 42 49 52 57 58 60 62 60 59
172 158 140 140 112 81 49 71 64 60 59 59 65 69 70 60 50 53 57 57 58 60 59 59 59 63 68 67 64 60 56 53 48 42 41 46 50 54 57 58 60 58 55
148 176 172 154 140 137 102 101 105 91 85 85 90 103 97 70 53 52 60 61 62 66 64 61 65 68 70 68 67 64 57 54 49 42 40 47 50 54 55 56 54 53 50
166 190 188 165 159 155 141 152 118 118 126 123 119 150 140 110 90 80 72 69 71 76 78 75 75 74 69 64 65 67 62 55 51 47 40 44 46 50 53 53 50 51 48
184 192 187 168 160 151 159 162 144 137 136 114 119 158 154 136 124 108 85 73 78 85 89 87 84 80 71 69 60 58 58 56 53 49 43 39 43 45 46 47 46 47 49
187 179 175 174 148 148 157 164 152 148 136 127 127 140 147 141 130 118 104 93 93 99 97 92 85 79 76 70 57 53 55 55 53 47 43 38 36 40 42 42 42 43 45
179 171 177 173 153 153 144 130 126 125 120 116 113 126 142 141 132 118 112 108 111 105 103 99 91 82 72 67 60 47 48 51 49 48 45 42 40 38 39 40 40 39 41
182 175 173 161 161 154 128 106 97 94 94 98 108 121 134 137 135 125 119 119 119 107 103 109 91 96 92 80 73 53 42 42 42 49 47 45 46 45 41 38 38 37 38
177 172 169 161 153 131 111 93 77 72 71 78 93 108 124 134 134 124 118 120 121 108 97 100 103 86 89 89 78 59 38 37 45 43 42 45 46 46 45 42 36 32 36
167 166 169 167 156 132 119 122 116 114 95 72 72 91 117 129 133 126 124 120 119 120 124 122 113 98 79 83 81 49 27 35 45 37 38 43 42 45 48 44 39 35 32
174 171 173 175 167 163 155 145 138 133 124 105 56 75 108 134 142 141 136 135 128 120 116 127 128 119 101 82 117 97 29 8 21 25 25 36 35 39 42 42 40 36 35
180 181 186 183 177 171 150 121 97 78 63 56 46 37 56 128 139 138 138 133 135 136 143 153 148 141 144 75 81 135 134 190 350 1 18 28 26 31 30 35 37 35 36
195 186 181 178 178 175 159 153 148 149 158 183 177 168 90 112 126 130 134 131 135 137 144 155 141 142 140 142 75 59 112 147 141 29 356 6 22 29 23 31 34 38 37
191 182 180 173 176 177 171 166 156 149 160 139 117 113 92 81 107 127 136 130 134 138 144 138 130 134 137 147 146 123 90 71 93 136 17 342 4 10 21 27 32 35 36
182 177 172 172 179 178 172 168 168 162 156 145 145 141 132 90 76 112 128 130 137 142 149 148 142 137 135 132 131 135 146 142 149 139 156 230 351 342 7 22 25 24 33
Height
1527 1527 1528 1528 1529 1530 1530 1530 1531 1531 1531 1531 1531 1532 1533 1533 1534 1534 1535 1535 1535 1536 1536 1536 1536 1536 1536 1536 1536 1537 1537 1537 1537 1537 1537 1537 1537 1537 1537 1538 1538 1538 1538
1527 1528 1529 1529 1530 1530 1531 1532 1532 1532 1532 1532 1533 1533 1534 1534 1535 1535 1536 1536 1537 1537 1537 1537 1537 1537 1537 1538 1538 1538 1538 1538 1538 1538 1538 1538 1538 1538 1538 1539 1539 1539 1540
1527 1528 1529 1530 1531 1531 1532 1533 1533 1533 1533 1534 1534 1534 1535 1536 1536 1537 1537 1537 1538 1538 1538 1538 1538 1539 1539 1539 1539 1539 1540 1540 1539 1539 1539 1539 1539 1539 1539 1540 1540 1540 1541
1528 1529 1530 1531 1532 1532 1533 1534 1534 1534 1535 1535 1535 1536 1537 1537 1538 1538 1538 1539 1539 1539 1539 1539 1540 1540 1540 1541 1541 1541 1541 1541 1541 1541 1541 1541 1541 1541 1541 1541 1541 1541 1541
1529 1530 1531 1532 1532 1533 1534 1535 1535 1535 1536 1536 1537 1537 1538 1539 1539 1539 1540 1540 1540 1540 1541 1541 1541 1542 1542 1542 1542 1542 1542 1542 1542 1542 1542 1542 1542 1542 1542 1542 1542 1542 1542
1530 1531 1531 1533 1534 1534 1535 1536 1536 1537 1537 1538 1538 1539 1539 1540 1540 1541 1541 1541 1541 1542 1542 1542 1542 1543 1543 1543 1543 1543 1543 1544 1544 1544 1543 1543 1543 1543 1543 1543 1543 1543 1543
1532 1532 1533 1534 1535 1536 1536 1537 1538 1538 1539 1539 1540 1540 1541 1541 1542 1542 1542 1542 1542 1543 1543 1543 1544 1544 1544 1545 1545 1545 1545 1545 1545 1545 1545 1544 1544 1544 1543 1543 1543 1543 1543
1533 1534 1535 1536 1536 1537 1538 1538 1539 1540 1540 1541 1541 1542 1542 1543 1543 1543 1543 1544 1544 1544 1544 1545 1545 1546 1546 1546 1546 1546 1546 1546 1546 1546 1546 1545 1545 1545 1544 1544 1544 1543 1543
1535 1535 1536 1537 1538 1538 1539 1540 1541 1541 1542 1543 1543 1543 1544 1544 1544 1545 1545 1545 1545 1546 1546 1547 1547 1547 1547 1548 1548 1548 1548 1547 1547 1547 1547 1547 1546 1546 1545 1545 1544 1544 1544
1536 1537 1538 1538 1539 1540 1540 1541 1542 1543 1543 1544 1545 1545 1546 1546 1546 1546 1547 1547 1547 1548 1548 1548 1549 1549 1549 1549 1549 1549 1549 1548 1548 1548 1548 1547 1547 1546 1546 1545 1545 1544 1544
1537 1538 1539 1539 1540 1541 1542 1543 1543 1544 1545 1546 1546 1547 1547 1548 1548 1549 1549 1549 1549 1550 1550 1550 1550 1550 1551 1551 1550 1550 1550 1550 1550 1549 1549 1549 1548 1547 1547 1546 1546 1545 1545
1538 1539 1540 1540 1541 1542 1543 1544 1544 1545 1546 1547 1548 1548 1549 1550 1550 1550 1550 1551 1551 1551 1552 1552 1552 1552 1552 1552 1552 1552 1552 1551 1551 1551 1550 1550 1549 1548 1548 1547 1546 1546 1546
1538 1539 1540 1541 1542 1543 1544 1545 1546 1547 1548 1549 1549 1550 1550 1551 1551 1552 1552 1552 1553 1553 1553 1553 1553 1553 1554 1554 1553 1553 1553 1553 1552 1552 1551 1551 1550 1549 1549 1548 1547 1547 1546
1538 1540 1541 1542 1543 1544 1545 1546 1547 1548 1549 1550 1551 1551 1552 1552 1553 1553 1553 1554 1554 1555 1555 1555 1555 1555 1555 1555 1555 1555 1554 1554 1554 1553 1553 1552 1551 1550 1549 1549 1548 1548 1547
1539 1540 1541 1542 1543 1545 1546 1547 1548 1549 1550 1551 1552 1552 1553 1553 1554 1554 1555 1555 1555 1556 1556 1556 1556 1556 1556 1556 1556 1556 1556 1555 1555 1554 1554 1553 1552 1551 1550 1549 1549 1548 1547
1539 1540 1541 1543 1544 1545 1546 1547 1549 1550 1550 1551 1552 1553 1554 1554 1555 1555 1556 1556 1556 1557 1557 1557 1557 1557 1557 1558 1558 1558 1557 1557 1556 1556 1555 1554 1553 1552 1551 1550 1549 1549 1548
1539 1540 1541 1543 1544 1545 1547 1548 1549 1550 1551 1552 1553 1554 1554 1555 1555 1556 1556 1557 1557 1557 1558 1558 1558 1558 1559 1559 1559 1559 1559 1558 1558 1557 1556 1555 1554 1553 1552 1551 1551 1550 1549
1539 1540 1542 1543 1544 1546 1547 1548 1550 1550 1551 1552 1553 1554 1555 1555 1556 1556 1557 1558 1558 1558 1559 1559 1559 1559 1560 1560 1560 1560 1560 1559 1559 1558 1557 1556 1555 1554 1553 1553 1552 1551 1549
1538 1540 1541 1543 1544 1546 1547 1549 1550 1551 1552 1553 1553 1554 1555 1555 1556 1557 1557 1558 1559 1559 1559 1560 1560 1560 1561 1561 1561 1561 1561 1560 1560 1559 1558 1557 1556 1555 1555 1554 1553 1552 1550
1537 1539 1541 1543 1544 1546 1547 1548 1550 1551 1552 1553 1554 1554 1555 1556 1556 1557 1558 1558 1559 1559 1560 1561 1561 1561 1561 1561 1561 1561 1561 1561 1561 1560 1559 1559 1558 1557 1556 1555 1554 1553 1552
1536 1538 1540 1542 1544 1545 1547 1548 1549 1550 1551 1553 1554 1554 1555 1556 1556 1557 1558 1558 1559 1560 1560 1561 1561 1561 1562 1562 1562 1562 1562 1562 1561 1561 1560 1559 1559 1558 1557 1556 1555 1554 1553
1534 1536 1539 1541 1543 1544 1546 1548 1549 1550 1551 1552 1553 1554 1555 1556 1557 1557 1558 1558 1559 1560 1560 1561 1561 1561 1562 1562 1562 1562 1562 1563 1562 1562 1561 1560 1560 1559 1558 1557 1556 1555 1554
1533 1535 1537 1540 1542 1543 1545 1547 1548 1550 1551 1552 1553 1554 1555 1556 1557 1557 1558 1558 1559 1559 1560 1560 1561 1561 1561 1562 1562 1563 1562 1562 1562 1562 1562 1561 1560 1560 1559 1558 1557 1556 1555
1532 1534 1536 1538 1540 1542 1544 1545 1547 1548 1549 1550 1552 1553 1554 1555 1556 1557 1558 1558 1559 1559 1559 1560 1560 1561 1561 1562 1562 1562 1563 1562 1562 1562 1562 1562 1561 1560 1559 1558 1557 1557 1556
1531 1533 1535 1537 1539 1541 1542 1544 1546 1547 1548 1550 1551 1552 1554 1555 1556 1556 1557 1558 1558 1559 1559 1560 1560 1561 1561 1561 1561 1561 1561 1561 1561 1561 1561 1561 1561 1560 1559 1559 1558 1557 1556
1529 1531 1533 1535 1537 1539 1541 1542 1544 1545 1547 1549 1550 1551 1552 1554 1555 1556 1556 1557 1557 1558 1559 1559 1560 1560 1560 1561 1561 1561 1561 1561 1560 1560 1560 1560 1560 1560 1559 1559 1558 1557 1557